Wind_Speed
47 44 47 46 45 46 46 47 47 50 54 55 51 34 17 16 18 22 26 30 34 34 30 29 27 28 29 30 33 37 39 39 45 46 49 51 55 59 58 61 62 63 64 63 63 60 62 57 59 57 55 52 51 49
47 42 46 45 45 45 44 47 47 49 52 52 52 39 20 15 14 20 26 27 32 30 29 27 24 26 27 31 31 35 38 39 39 42 45 45 49 50 53 55 61 61 59 61 59 61 58 58 60 59 56 53 52 52
49 45 44 44 44 44 44 45 45 48 48 49 51 45 25 17 15 21 25 28 29 26 27 23 22 25 26 29 33 32 34 36 38 38 40 41 44 47 48 52 51 54 56 57 56 62 61 62 61 59 58 55 53 53
53 47 44 44 45 46 44 47 48 46 47 48 49 47 31 19 18 23 29 29 29 27 25 19 19 23 24 26 28 31 33 34 36 38 40 42 45 47 47 48 50 49 55 57 59 64 62 61 59 61 60 58 56 54
54 50 46 45 45 46 46 48 49 50 50 48 47 46 39 21 19 22 30 32 29 28 27 23 18 22 22 24 27 31 32 31 30 33 38 42 44 47 47 48 50 54 55 57 60 59 62 58 59 59 60 60 59 56
56 55 48 47 46 46 46 48 50 51 51 46 47 44 42 28 19 20 32 35 31 28 26 24 20 21 22 20 22 23 27 31 31 30 30 36 39 39 43 47 54 55 53 54 56 56 57 59 60 60 58 59 59 60
57 57 51 47 48 48 47 48 51 52 51 47 47 47 41 35 21 19 31 35 33 30 25 25 22 20 20 20 20 22 26 30 29 29 30 31 32 31 35 43 51 48 49 49 52 53 56 59 57 57 56 56 56 58
58 57 51 48 49 49 49 48 50 51 52 50 48 48 43 37 25 23 31 35 38 31 27 26 26 21 20 22 21 19 21 23 26 29 29 27 30 33 39 41 33 37 44 49 53 53 56 57 57 55 54 53 52 55
55 55 51 49 50 50 50 50 50 53 53 48 53 51 49 38 32 23 31 38 39 34 30 30 29 21 22 21 22 21 20 20 21 22 24 27 32 32 29 30 33 36 41 46 48 50 54 53 50 48 50 54 56 57
54 54 51 50 49 48 52 52 51 52 52 50 51 53 53 40 30 23 29 40 41 38 34 33 31 27 24 23 20 18 20 22 22 21 22 25 23 24 28 26 28 31 36 39 42 45 47 46 47 48 51 53 52 51
54 54 54 51 52 53 54 54 51 52 53 52 55 57 50 37 30 24 25 36 42 42 40 35 32 30 27 26 24 21 18 17 20 20 22 24 21 26 25 26 27 28 33 35 32 33 37 39 44 47 47 45 45 45
49 50 52 53 52 53 55 54 55 53 53 55 55 57 43 34 29 23 21 37 44 45 43 38 34 35 34 32 28 26 23 20 21 19 19 17 19 20 20 23 25 27 30 31 29 31 31 28 32 36 43 46 46 41
58 56 51 53 55 54 55 58 55 56 54 59 60 53 35 29 26 21 21 42 48 49 47 41 38 37 35 33 33 32 29 28 26 22 25 23 23 20 18 19 19 21 24 25 25 27 30 29 30 32 36 37 36 34
59 60 59 60 58 58 57 60 58 55 59 57 55 36 29 27 27 26 28 42 50 51 49 46 42 41 40 37 34 32 32 32 30 31 30 27 26 23 19 19 17 18 19 20 23 25 23 20 23 25 28 29 30 29
65 64 62 62 64 62 64 62 59 55 56 58 40 29 30 30 30 27 29 36 49 53 52 47 44 43 44 40 37 35 33 32 36 35 30 26 24 24 21 20 16 14 16 15 15 17 20 24 26 27 27 29 26 25
70 68 68 68 66 67 69 58 57 58 55 48 33 33 35 31 30 29 33 37 45 55 53 48 47 46 45 43 41 38 35 38 37 36 30 24 23 23 21 21 17 15 17 16 15 17 23 28 28 26 26 24 19 16
72 70 71 73 75 74 61 57 56 55 54 40 38 36 36 34 33 32 38 39 48 53 53 53 50 47 42 38 37 36 37 37 36 34 32 29 25 23 24 23 19 18 19 21 21 20 22 23 23 28 23 23 18 17
75 73 76 78 78 66 57 55 57 52 51 44 41 36 34 35 35 35 41 45 47 56 55 55 53 45 41 37 38 38 39 38 36 34 31 30 28 26 25 25 23 20 20 26 25 22 22 25 24 19 18 18 15 17
77 79 81 80 66 60 57 58 57 54 50 42 41 40 38 39 39 38 46 47 49 56 61 59 54 51 45 44 43 42 43 41 39 37 34 30 27 25 26 26 27 24 21 24 28 27 26 24 24 22 18 17 16 17
81 83 76 66 61 59 60 59 62 53 45 44 44 43 41 42 43 43 50 53 52 55 61 57 52 52 50 47 43 43 44 42 39 38 37 34 30 29 26 26 29 27 22 24 26 33 32 30 31 29 29 27 23 19
84 76 66 62 63 60 63 61 53 47 46 46 44 43 43 43 43 46 51 56 52 50 56 60 61 57 53 51 48 43 41 41 39 38 36 35 35 33 29 28 30 29 24 23 23 29 32 39 40 39 37 35 27 24
73 67 65 63 66 64 55 50 47 44 41 41 41 42 42 41 43 46 53 54 51 49 54 61 65 64 64 54 52 48 45 40 40 38 36 34 34 35 33 31 34 29 27 25 19 27 40 43 40 39 35 32 27 26
67 67 68 62 55 51 49 46 42 40 39 40 39 38 39 40 44 47 49 53 54 53 52 57 63 61 60 58 56 52 50 47 44 38 34 34 36 35 35 34 37 33 32 28 23 40 44 42 36 35 31 25 24 22
67 59 53 52 49 45 44 42 41 38 36 36 36 37 39 41 44 48 51 55 58 55 51 54 62 64 60 54 52 55 53 49 39 36 37 37 36 35 36 38 40 36 32 30 35 44 43 44 39 37 31 31 30 24
51 50 48 45 42 39 39 37 35 34 34 35 36 37 39 40 43 48 53 55 56 55 54 54 58 61 60 61 59 53 47 44 41 39 39 35 34 37 36 41 41 40 37 33 42 47 48 44 43 41 38 38 36 26
41 40 38 35 35 36 37 37 36 35 36 38 38 38 40 42 44 48 50 51 54 56 56 58 60 59 55 54 52 51 46 43 42 41 38 35 37 37 32 41 42 41 41 40 46 52 46 47 47 42 40 36 36 32
33 33 30 30 30 30 29 29 29 31 31 33 34 36 38 41 44 48 50 53 55 56 58 58 57 58 56 52 48 44 44 43 43 43 39 37 40 38 35 37 43 43 43 44 45 51 52 51 47 47 44 42 37 34
20 20 20 20 21 23 23 24 25 25 27 28 30 33 35 37 39 42 47 51 55 58 60 60 56 56 56 53 49 46 44 45 45 45 40 39 41 41 38 36 39 41 43 43 45 46 48 49 46 46 46 44 43 40
12 13 13 14 14 16 16 18 20 22 25 29 31 33 35 36 38 43 47 51 55 57 58 58 57 60 58 56 52 51 49 48 48 47 46 41 39 42 43 40 38 40 41 43 43 42 44 46 47 45 43 41 39 37
7 3 4 4 6 8 11 14 18 21 23 25 28 32 34 35 37 41 46 50 57 59 62 60 57 62 57 57 56 55 54 53 53 50 47 40 40 41 42 42 41 39 40 42 43 42 41 41 42 43 43 41 38 36
18 16 14 14 13 9 8 11 16 18 20 24 28 32 34 36 39 44 47 52 58 59 63 59 56 62 63 60 60 57 56 57 56 55 52 48 43 43 43 40 39 41 43 43 42 41 41 41 41 41 40 40 40 40
11 11 11 11 14 15 19 19 19 16 18 23 27 28 28 30 36 40 44 47 51 58 63 62 62 64 64 62 60 61 59 59 58 57 55 51 48 45 46 43 39 38 41 43 42 41 40 40 39 40 38 37 39 40
17 16 16 16 18 19 19 20 20 17 17 18 17 18 23 25 31 36 37 39 43 48 53 59 64 65 66 62 59 59 60 62 61 60 58 54 51 50 50 49 45 43 41 38 36 38 39 41 42 42 46 47 46 43
Wind_Direction
336 338 339 336 336 336 337 339 337 340 343 346 347 338 295 276 255 235 221 226 224 221 230 235 242 244 237 234 228 228 227 227 228 229 230 230 228 229 229 229 232 233 233 234 237 238 241 240 241 243 243 242 244 247
335 334 338 337 337 338 337 338 340 340 342 346 350 345 315 286 261 234 214 222 217 222 231 231 241 241 231 229 227 227 227 227 227 229 233 232 232 232 233 231 232 233 235 238 237 238 239 241 241 242 243 243 244 248
333 332 336 337 337 338 338 339 341 340 342 345 351 349 329 289 266 234 208 209 221 224 232 230 234 237 230 226 224 226 230 229 228 227 229 233 233 232 233 235 236 235 234 235 234 237 236 238 239 241 244 245 245 247
333 328 330 336 338 339 337 340 340 340 341 343 345 349 337 284 264 239 215 210 222 225 232 234 236 236 230 227 223 220 225 229 229 228 228 229 231 233 230 231 234 235 234 232 232 233 234 235 239 243 243 244 244 245
327 328 323 326 332 336 337 337 338 341 340 341 341 345 344 308 263 248 225 217 218 226 231 238 235 237 234 226 223 219 222 224 226 226 226 228 230 233 233 231 230 231 230 231 233 233 234 234 237 240 242 244 245 246
320 324 320 319 324 329 331 332 336 336 339 337 340 339 344 328 272 252 226 219 218 225 231 237 233 235 232 226 221 220 219 217 220 222 221 225 230 231 233 233 234 233 234 234 235 234 237 237 237 239 241 245 247 247
315 316 317 313 315 321 326 326 328 331 333 333 338 339 337 338 290 261 225 220 217 223 225 233 235 230 232 221 217 216 218 219 218 220 223 224 220 220 226 231 237 238 239 241 242 242 242 241 241 243 243 245 247 249
310 311 311 310 310 313 318 321 323 325 327 329 329 333 331 333 312 262 229 219 217 219 220 223 231 223 229 222 218 210 214 218 225 229 231 228 222 226 237 242 246 242 241 241 242 242 244 244 244 245 247 247 246 246
305 307 306 307 308 309 312 316 318 318 321 324 324 324 328 322 325 273 236 219 216 217 213 218 225 220 217 221 220 218 215 216 215 216 220 225 232 239 249 243 241 241 243 244 246 247 248 248 247 246 245 243 242 243
305 304 303 306 307 308 308 311 313 316 316 317 321 322 322 315 317 286 251 224 214 210 214 215 219 220 216 221 215 214 216 217 220 218 221 228 230 233 239 241 242 246 247 247 247 246 247 248 248 246 243 244 245 247
302 301 301 303 304 305 306 308 310 311 313 313 314 317 314 306 309 301 256 233 217 213 215 219 218 220 218 218 220 217 212 213 220 225 232 237 236 241 242 244 241 243 253 256 252 249 246 243 244 246 248 246 245 246
304 306 304 301 304 304 306 307 307 308 307 307 307 312 303 297 302 297 253 226 217 215 217 217 218 221 221 220 221 225 225 226 229 225 235 236 241 248 252 256 252 245 247 256 252 247 239 240 245 242 239 238 240 241
300 303 307 308 307 304 305 307 306 304 302 305 305 304 288 288 292 281 239 217 216 217 218 214 216 224 225 225 226 229 233 238 240 240 243 244 251 257 261 267 267 259 261 258 250 247 244 248 245 234 233 226 228 233
298 300 302 304 302 307 304 304 306 301 302 306 304 288 276 275 273 264 233 218 219 218 217 216 217 223 225 225 228 230 233 238 243 244 245 249 254 260 266 273 273 268 270 259 250 240 229 220 206 203 204 210 214 212
294 297 299 299 301 298 305 301 303 300 305 309 294 276 264 265 264 266 235 222 218 218 218 219 220 223 226 228 231 233 234 237 240 246 248 249 254 261 263 269 275 256 237 211 199 193 178 171 169 172 178 185 191 197
292 294 294 296 297 298 302 297 299 302 304 304 277 265 264 264 259 257 230 225 219 218 222 224 225 225 227 230 235 237 236 236 239 244 248 249 251 259 263 260 264 241 213 183 174 165 166 171 171 172 176 183 189 206
292 291 293 293 299 300 297 291 296 301 304 287 267 272 268 259 252 250 226 223 217 218 223 224 226 229 226 225 228 230 232 235 238 242 246 247 245 248 255 257 256 243 217 191 172 177 172 175 174 178 189 209 223 245
287 289 291 296 297 295 289 291 296 298 297 279 265 272 269 253 251 248 226 222 218 214 219 223 224 226 221 224 226 225 227 229 233 239 244 248 247 242 245 254 253 250 229 212 187 174 177 176 177 195 203 217 224 235
285 291 293 296 290 286 287 291 293 295 287 273 264 267 262 257 253 246 224 220 219 214 216 221 224 225 223 228 232 227 224 228 232 235 239 244 245 240 241 246 250 252 238 222 205 189 187 193 194 189 202 209 215 227
288 291 293 287 283 285 287 290 292 286 271 265 269 268 262 257 249 241 224 219 221 217 214 217 222 229 229 229 223 224 226 231 234 235 236 237 239 236 240 239 243 247 247 227 212 205 195 192 183 187 189 195 206 212
289 288 285 283 284 285 288 286 281 275 272 269 266 263 260 252 242 232 223 218 222 221 216 217 219 221 230 232 224 225 233 238 241 241 239 238 239 239 238 233 231 238 247 239 210 205 204 190 190 197 197 207 212 213
284 282 283 283 284 285 283 282 279 275 268 264 262 258 252 243 234 225 219 217 218 221 222 218 219 224 225 226 231 232 232 235 239 242 236 235 236 238 237 232 220 227 236 238 217 201 188 190 195 199 205 214 217 218
281 281 283 283 281 281 280 277 273 268 265 261 255 248 242 235 228 222 215 218 220 221 222 224 220 221 224 225 229 231 235 239 241 236 231 232 231 234 237 229 215 216 226 233 223 191 189 197 202 205 207 208 214 224
279 278 278 277 277 275 273 270 267 264 259 252 246 240 235 229 225 218 216 216 220 224 224 225 223 221 221 223 226 228 230 235 230 230 231 228 232 236 234 222 211 213 218 222 203 194 200 204 205 207 211 218 214 215
275 275 274 273 272 270 267 263 258 254 250 246 240 233 229 227 223 218 217 222 222 223 226 224 222 220 221 224 226 230 229 225 230 230 222 227 232 227 225 217 210 209 209 213 206 204 206 210 214 213 215 224 232 227
274 272 271 270 268 265 263 262 260 254 248 244 241 235 232 230 227 224 223 222 223 225 224 220 218 216 217 219 222 227 230 222 220 219 219 230 225 220 223 218 210 209 208 207 210 211 214 213 215 215 218 225 232 233
273 270 268 264 262 260 259 256 254 252 247 242 239 236 232 228 225 223 221 220 220 219 219 218 216 217 217 218 219 218 216 216 216 215 220 227 220 216 223 219 213 213 211 211 214 218 219 220 217 217 221 227 237 241
272 272 267 264 261 258 255 250 247 248 246 240 235 231 228 226 223 219 216 215 214 215 217 216 217 211 211 213 213 215 215 213 213 215 220 220 217 215 219 219 214 216 217 215 217 218 218 222 229 230 233 237 239 245
282 283 277 269 259 249 246 247 244 242 240 234 231 228 226 224 221 217 215 213 212 214 212 213 211 210 212 212 209 212 209 210 212 216 220 218 216 216 218 217 213 216 219 220 221 221 221 222 225 230 234 237 240 240
16 357 339 306 286 265 254 247 242 238 236 235 233 232 230 226 221 219 216 214 212 212 214 217 217 212 211 209 208 209 209 210 212 215 216 213 215 217 219 221 219 216 219 221 222 223 224 227 228 228 230 232 236 238
25 26 17 7 349 341 308 273 259 253 247 245 241 236 231 224 222 220 218 217 216 216 216 216 217 214 211 212 211 210 211 213 213 217 219 218 218 218 218 218 219 218 219 221 222 222 223 225 228 229 230 230 232 233
31 16 12 3 352 331 318 306 298 289 271 260 254 249 242 235 234 232 226 222 220 217 218 218 215 213 215 216 215 214 215 215 214 217 220 218 216 217 219 220 220 217 217 220 222 222 222 222 222 224 232 233 231 234
25 13 6 1 357 347 336 327 318 308 288 276 264 249 239 234 234 233 232 231 227 223 221 220 219 218 218 217 217 218 217 216 218 218 216 215 217 218 216 217 217 216 217 218 222 223 223 225 226 227 227 227 231 235
Height
10733 10726 10719 10712 10705 10698 10690 10683 10675 10666 10657 10646 10634 10625 10621 10621 10621 10624 10629 10636 10641 10647 10652 10655 10659 10661 10662 10664 10668 10670 10676 10683 10686 10692 10697 10705 10714 10718 10730 10736 10745 10752 10760 10770 10777 10786 10788 10798 10801 10808 10813 10820 10824 10829
10726 10720 10714 10706 10699 10692 10685 10678 10670 10662 10653 10643 10632 10623 10618 10617 10617 10620 10624 10630 10636 10641 10645 10649 10652 10653 10655 10657 10662 10665 10668 10673 10680 10684 10690 10698 10702 10713 10719 10728 10730 10738 10749 10755 10765 10769 10777 10782 10786 10792 10800 10808 10813 10816
10719 10713 10707 10700 10693 10686 10680 10672 10665 10657 10649 10640 10631 10622 10616 10615 10616 10618 10620 10626 10632 10636 10639 10644 10645 10646 10649 10651 10654 10660 10664 10667 10672 10678 10683 10689 10693 10700 10707 10712 10722 10729 10734 10741 10750 10751 10760 10764 10772 10781 10788 10794 10800 10804
10712 10706 10700 10693 10687 10680 10674 10667 10660 10653 10645 10637 10629 10621 10615 10612 10612 10615 10617 10621 10626 10631 10634 10639 10640 10641 10643 10646 10652 10654 10655 10659 10664 10669 10673 10678 10682 10686 10694 10700 10706 10717 10718 10726 10731 10733 10744 10752 10761 10766 10773 10779 10785 10790
10703 10698 10692 10686 10680 10673 10667 10660 10654 10647 10640 10633 10625 10618 10612 10608 10608 10609 10612 10616 10621 10626 10629 10633 10635 10636 10639 10641 10644 10647 10650 10653 10656 10660 10664 10668 10673 10676 10683 10689 10693 10696 10701 10708 10713 10725 10729 10741 10746 10752 10758 10764 10770 10777
10692 10688 10683 10677 10671 10666 10660 10653 10647 10641 10636 10629 10622 10614 10608 10603 10601 10602 10606 10610 10615 10620 10624 10627 10629 10631 10633 10636 10638 10641 10644 10646 10649 10652 10657 10660 10665 10671 10674 10677 10675 10682 10692 10700 10706 10714 10721 10727 10733 10739 10745 10750 10756 10761
10682 10677 10672 10667 10662 10657 10652 10646 10640 10634 10629 10623 10617 10611 10604 10599 10596 10596 10600 10605 10609 10613 10618 10621 10624 10626 10629 10631 10633 10635 10637 10640 10644 10647 10650 10655 10660 10662 10663 10663 10669 10682 10689 10695 10698 10704 10707 10712 10721 10727 10733 10738 10744 10748
10670 10665 10660 10656 10651 10647 10643 10638 10632 10627 10621 10616 10611 10605 10600 10594 10591 10590 10591 10597 10602 10607 10612 10616 10618 10622 10624 10626 10628 10630 10633 10635 10638 10642 10646 10650 10653 10654 10653 10659 10676 10676 10676 10678 10681 10687 10691 10697 10703 10712 10718 10724 10728 10730
10656 10652 10648 10644 10640 10636 10632 10628 10623 10617 10612 10608 10603 10598 10594 10589 10585 10584 10584 10588 10595 10601 10605 10608 10612 10617 10619 10621 10623 10626 10629 10631 10634 10637 10640 10642 10644 10649 10654 10655 10659 10662 10664 10668 10672 10677 10679 10686 10694 10700 10703 10705 10709 10713
10643 10639 10635 10632 10628 10624 10620 10616 10612 10607 10602 10598 10594 10589 10585 10581 10578 10576 10577 10580 10587 10593 10598 10601 10605 10610 10614 10616 10619 10621 10624 10627 10630 10633 10635 10637 10642 10644 10645 10649 10651 10652 10653 10656 10659 10663 10667 10674 10677 10681 10686 10690 10695 10701
10628 10625 10622 10619 10616 10611 10608 10604 10600 10595 10592 10587 10583 10580 10574 10572 10569 10567 10568 10573 10580 10586 10589 10595 10600 10603 10607 10611 10614 10617 10620 10623 10625 10628 10630 10633 10637 10636 10640 10642 10645 10646 10645 10646 10650 10653 10656 10658 10663 10669 10675 10681 10685 10689
10614 10611 10608 10605 10602 10598 10594 10591 10587 10582 10578 10575 10571 10568 10563 10561 10560 10558 10559 10566 10572 10576 10581 10587 10593 10595 10599 10604 10609 10612 10616 10619 10621 10624 10626 10628 10630 10631 10633 10634 10636 10637 10638 10638 10642 10644 10645 10649 10653 10658 10662 10667 10673 10677
10600 10597 10593 10590 10587 10584 10581 10577 10572 10569 10565 10561 10557 10552 10551 10550 10549 10548 10549 10556 10560 10564 10570 10578 10584 10588 10592 10598 10601 10605 10610 10612 10616 10620 10620 10622 10623 10626 10628 10627 10628 10629 10629 10631 10633 10634 10637 10641 10644 10647 10652 10657 10661 10665
10583 10581 10578 10574 10570 10568 10565 10562 10558 10553 10550 10546 10540 10538 10537 10538 10537 10536 10537 10541 10548 10554 10561 10568 10574 10578 10584 10589 10594 10599 10602 10605 10609 10610 10612 10616 10619 10620 10622 10622 10622 10622 10622 10623 10624 10625 10629 10633 10636 10639 10643 10649 10655 10660
10564 10563 10560 10556 10554 10551 10549 10545 10542 10537 10534 10530 10524 10524 10522 10523 10524 10526 10529 10532 10538 10546 10552 10558 10564 10569 10574 10582 10586 10590 10595 10599 10598 10600 10606 10611 10613 10614 10616 10617 10618 10619 10618 10619 10620 10623 10626 10628 10632 10635 10640 10646 10650 10656
10546 10545 10541 10537 10535 10533 10531 10527 10525 10522 10519 10514 10510 10508 10508 10511 10512 10514 10517 10522 10528 10535 10542 10548 10553 10559 10566 10572 10578 10582 10586 10586 10589 10593 10599 10604 10607 10608 10609 10611 10613 10615 10616 10617 10619 10622 10625 10628 10632 10635 10640 10645 10650 10654
10526 10524 10520 10516 10514 10513 10511 10509 10507 10505 10504 10498 10492 10495 10496 10497 10499 10501 10505 10510 10516 10523 10530 10536 10541 10548 10556 10563 10567 10572 10574 10578 10582 10587 10591 10596 10600 10601 10602 10604 10607 10609 10612 10614 10616 10620 10623 10626 10630 10635 10639 10643 10647 10651
10505 10502 10500 10495 10492 10490 10490 10490 10489 10488 10485 10479 10479 10481 10481 10483 10485 10488 10492 10498 10502 10510 10516 10522 10530 10537 10546 10552 10555 10561 10564 10570 10575 10579 10583 10586 10591 10594 10596 10597 10600 10602 10606 10609 10611 10616 10620 10624 10628 10632 10637 10641 10644 10646
10483 10480 10477 10473 10469 10468 10468 10470 10469 10469 10465 10464 10463 10465 10467 10469 10471 10474 10478 10483 10488 10495 10502 10509 10516 10527 10534 10539 10544 10550 10555 10561 10566 10570 10574 10578 10582 10586 10589 10590 10593 10596 10598 10602 10606 10610 10616 10620 10624 10628 10632 10635 10637 10640
10460 10458 10454 10451 10449 10448 10448 10447 10446 10447 10446 10445 10446 10447 10450 10451 10454 10458 10463 10469 10475 10481 10489 10499 10510 10515 10521 10528 10533 10539 10545 10550 10555 10560 10564 10569 10573 10578 10581 10584 10586 10589 10591 10595 10599 10604 10609 10616 10619 10624 10626 10628 10632 10636
10436 10433 10431 10430 10428 10426 10426 10425 10424 10425 10424 10424 10424 10427 10430 10432 10436 10440 10447 10455 10463 10473 10481 10490 10496 10503 10509 10515 10522 10529 10535 10541 10546 10550 10555 10559 10563 10568 10573 10577 10580 10583 10586 10588 10592 10597 10603 10611 10614 10618 10620 10623 10627 10631
10414 10411 10409 10408 10406 10404 10402 10403 10402 10402 10403 10403 10405 10408 10410 10414 10419 10425 10432 10444 10453 10460 10465 10472 10481 10488 10496 10503 10509 10518 10525 10531 10536 10541 10545 10549 10553 10557 10563 10568 10572 10576 10579 10582 10587 10592 10599 10605 10609 10613 10616 10620 10624 10627
10392 10390 10388 10386 10384 10382 10383 10382 10383 10384 10385 10385 10387 10390 10393 10399 10404 10412 10424 10431 10438 10442 10450 10458 10466 10473 10484 10492 10500 10508 10514 10520 10526 10531 10534 10538 10542 10546 10551 10557 10563 10568 10573 10577 10582 10588 10595 10600 10605 10609 10613 10617 10621 10624
10371 10368 10367 10364 10364 10364 10364 10365 10365 10367 10368 10370 10373 10376 10380 10386 10392 10402 10411 10416 10420 10430 10440 10446 10453 10463 10472 10480 10487 10493 10500 10507 10514 10518 10522 10527 10532 10535 10540 10546 10553 10560 10566 10572 10578 10585 10591 10596 10600 10605 10608 10612 10617 10620
10350 10349 10347 10346 10347 10347 10347 10348 10350 10352 10355 10357 10359 10363 10368 10374 10381 10388 10394 10401 10410 10418 10425 10433 10441 10448 10457 10464 10472 10482 10491 10497 10502 10506 10512 10517 10521 10526 10531 10537 10544 10552 10559 10566 10573 10579 10585 10589 10595 10599 10602 10606 10610 10614
10333 10331 10331 10331 10331 10331 10332 10333 10335 10337 10341 10344 10347 10352 10356 10362 10368 10373 10380 10388 10395 10402 10410 10418 10427 10436 10445 10453 10462 10471 10478 10484 10490 10496 10504 10507 10511 10517 10522 10527 10536 10543 10550 10557 10564 10570 10575 10582 10586 10591 10596 10600 10605 10607
10318 10316 10316 10316 10316 10317 10318 10319 10320 10322 10325 10328 10332 10336 10341 10346 10351 10356 10364 10373 10380 10388 10396 10405 10414 10425 10434 10443 10452 10460 10466 10473 10480 10487 10493 10496 10501 10508 10513 10520 10528 10533 10540 10548 10554 10561 10566 10571 10578 10583 10587 10592 10596 10599
10306 10305 10304 10304 10304 10305 10306 10308 10309 10311 10313 10316 10319 10323 10327 10331 10337 10344 10351 10358 10366 10375 10384 10393 10402 10412 10422 10430 10439 10447 10455 10462 10470 10477 10482 10486 10492 10499 10504 10511 10519 10523 10530 10537 10544 10551 10558 10563 10568 10573 10578 10582 10586 10589
10300 10299 10298 10297 10296 10297 10298 10299 10301 10302 10303 10303 10307 10310 10314 10320 10326 10332 10339 10347 10355 10363 10372 10380 10390 10399 10408 10418 10427 10436 10443 10451 10458 10464 10469 10477 10483 10489 10494 10501 10509 10515 10521 10526 10533 10539 10545 10552 10557 10562 10567 10571 10576 10579
10297 10296 10295 10294 10293 10293 10294 10293 10294 10294 10294 10296 10299 10302 10306 10311 10317 10323 10329 10336 10343 10350 10359 10368 10376 10386 10395 10405 10414 10423 10431 10438 10445 10451 10458 10467 10474 10480 10486 10493 10500 10507 10512 10517 10522 10529 10535 10540 10546 10552 10556 10560 10564 10568
10299 10297 10295 10294 10292 10291 10290 10289 10288 10288 10288 10289 10290 10291 10295 10301 10305 10309 10314 10320 10327 10335 10344 10352 10360 10370 10381 10390 10400 10408 10417 10427 10434 10440 10448 10458 10465 10472 10477 10483 10490 10497 10502 10507 10511 10518 10524 10529 10534 10540 10544 10549 10553 10558
10303 10301 10298 10295 10293 10290 10287 10284 10282 10282 10281 10281 10282 10283 10286 10291 10293 10298 10301 10307 10313 10320 10327 10336 10347 10357 10366 10376 10386 10396 10405 10414 10420 10428 10437 10447 10456 10463 10469 10475 10481 10487 10491 10496 10502 10508 10515 10520 10523 10529 10534 10538 10543 10546
10305 10303 10299 10295 10292 10288 10284 10280 10276 10274 10272 10271 10272 10274 10275 10279 10282 10284 10290 10297 10303 10309 10317 10324 10332 10342 10353 10363 10372 10381 10391 10400 10408 10416 10425 10434 10443 10451 10458 10465 10472 10478 10484 10489 10494 10499 10505 10510 10515 10519 10524 10529 10532 10535